Location: Unspecified
(48.8656°N, 0.0000°E)
Time: 05:27:56
(UTC+00:00)

Vanguard 3 - Pass Details

Date: 20 June 2019
Orbit: 507 x 3264 km, 33.4° (Epoch: 22 July)

Event Time Altitude Azimuth Distance (km) Brightness Sun altitude
Rises 14:34:15 0° 249° (WSW) 4,625 11.6 50.7°
Reaches altitude 10° 14:38:57 10° 233° (SW) 3,092 11.0 50.0°
Maximum altitude 14:43:29 18° 194° (SSW) 2,071 9.9 49.3°
Drops below altitude 10° 14:46:54 10° 152° (SSE) 2,222 9.5 48.8°
Sets 14:49:34 0° 131° (SE) 2,900 9.8 48.4°
